Latest Weather Observations for Bellambi

IDN60901

Issued at 2:51 pm EDT Saturday 31 January 2015 (issued every 10 minutes, with the page automatically refreshed every 10 minutes)

About weather observations | Map of Sydney area stations | Latest observations for Sydney area | Other Formats
Station Details ID: 068228 Name: BELLAMBI AWS Lat: -34.37 Lon: 150.93 Height: 10.0 m
Data from the previous 72 hours. | See also: Recent months at Bellambi
Date/Time
EDT
Tmp

°C
App
Tmp
°C
Dew
Point
°C
Rel
Hum
%
Delta-T

°C
Wind Press
QNH
hPa
Press
MSL
hPa
Rain
since
9 am
mm
Dir
 
Spd
km/h
Gust
km/h
Spd
kts
Gust
kts
31/02:30pm 22.7 20.7 14.0 58 5.1 SE 17 20 9 11 - - 0.0
31/02:00pm 22.6 20.8 12.0 51 6.0 SE 13 19 7 10 - - 0.0
31/01:30pm 22.3 20.7 11.4 50 6.1 ESE 11 15 6 8 - - 0.0
31/01:00pm 22.4 20.3 12.4 53 5.7 ESE 15 17 8 9 - - 0.0
31/12:30pm 22.2 20.3 11.9 52 5.8 ESE 13 17 7 9 - - 0.0
31/12:00pm 22.2 19.6 11.9 52 5.8 ESE 17 19 9 10 - - 0.0
31/11:30am 22.0 19.1 11.1 50 6.0 ESE 17 19 9 10 - - 0.0
31/11:00am 22.5 20.4 12.4 52 5.7 SE 15 17 8 9 - - 0.0
31/10:30am 22.0 20.0 11.4 51 5.9 SSE 13 17 7 9 - - 0.0
31/10:00am 21.9 19.7 10.7 49 6.2 SSE 13 17 7 9 - - 0.0
31/09:30am 21.8 20.7 10.6 49 6.1 SE 7 11 4 6 - - 0.0
31/09:00am 21.1 20.8 10.0 49 6.0 NNE 2 13 1 7 - - 0.0
31/08:30am 20.1 18.0 11.3 57 4.8 NNW 13 19 7 10 - - 0.0
31/08:00am 19.3 18.5 11.6 61 4.2 NW 7 11 4 6 - - 0.0
31/07:30am 17.9 16.5 11.0 64 3.7 WNW 9 13 5 7 - - 0.0
31/07:00am 16.7 14.5 10.8 68 3.2 WNW 13 17 7 9 - - 0.0
31/06:30am 15.7 13.8 10.5 71 2.7 WNW 11 15 6 8 - - 0.0
31/05:30am 15.6 13.8 10.8 73 2.5 NW 11 13 6 7 - - 0.0
31/05:00am 15.6 14.5 10.8 73 2.5 NW 7 9 4 5 - - 0.0
31/04:30am 16.1 16.1 11.1 72 2.7 NW 2 7 1 4 - - 0.0
31/04:00am 15.9 14.7 10.4 70 2.9 WSW 7 9 4 5 - - 0.0
31/03:30am 16.6 17.1 11.5 72 2.8 CALM 0 2 0 1 - - 0.0
31/03:00am 16.5 15.8 11.9 74 2.5 W 7 9 4 5 - - 0.0
31/02:30am 16.8 16.1 11.9 73 2.7 WNW 7 9 4 5 - - 0.0
31/02:00am 17.2 16.3 12.5 74 2.6 NW 9 13 5 7 - - 0.0
31/01:30am 17.0 16.9 12.1 73 2.7 WNW 4 9 2 5 - - 0.0
31/01:00am 17.7 17.4 12.8 73 2.7 WNW 6 9 3 5 - - 0.0
31/12:30am 17.9 16.7 12.8 72 2.8 SW 11 15 6 8 - - 0.0
 
Date/Time
EDT
Tmp

°C
App
Tmp
°C
Dew
Point
°C
Rel
Hum
%
Delta-T

°C
Wind Press
QNH
hPa
Press
MSL
hPa
Rain
since
9 am
mm
Dir
 
Spd
km/h
Gust
km/h
Spd
kts
Gust
kts
30/11:30pm 18.6 18.2 13.0 70 3.2 WSW 7 9 4 5 - - 0.0
30/11:00pm 18.7 18.3 13.1 70 3.2 WSW 7 9 4 5 - - 0.0
30/10:30pm 19.0 18.0 13.4 70 3.2 SW 11 15 6 8 - - 0.0
30/10:00pm 19.7 18.1 13.9 69 3.3 SW 15 28 8 15 - - 0.0
30/09:30pm 20.4 16.2 14.7 70 3.3 SSW 30 35 16 19 - - 0.0
30/09:00pm 20.6 15.2 14.9 70 3.3 S 37 44 20 24 - - 0.0
30/08:30pm 20.7 16.2 15.3 71 3.2 S 33 39 18 21 - - 0.0
30/08:00pm 20.7 16.6 15.0 70 3.4 SSW 30 35 16 19 - - 0.0
30/07:30pm 20.9 16.3 15.0 69 3.5 S 33 37 18 20 - - 0.0
30/07:00pm 20.9 16.8 14.8 68 3.6 S 30 35 16 19 - - 0.0
30/06:30pm 21.1 17.2 15.6 71 3.3 S 30 33 16 18 - - 0.0
30/05:30pm 21.5 18.0 14.6 65 4.1 S 26 33 14 18 - - 0.0
30/05:00pm 21.9 22.0 14.5 63 4.3 ESE 7 13 4 7 - - 0.0
30/04:30pm 21.0 18.5 14.2 65 4.0 N 20 26 11 14 - - 0.0
30/04:00pm 21.8 20.5 13.7 60 4.7 NE 13 28 7 15 - - 0.0
30/03:30pm 22.5 20.7 15.4 64 4.2 SE 19 24 10 13 - - 0.0
30/03:00pm 22.5 19.8 13.6 57 5.2 SSE 20 26 11 14 - - 0.0
30/02:30pm 23.3 19.0 10.7 45 7.0 SSW 24 30 13 16 - - 0.0
30/02:00pm 23.2 20.3 12.2 50 6.2 SSW 19 28 10 15 - - 0.0
30/01:30pm 22.8 18.2 9.6 43 7.1 SSW 24 37 13 20 - - 0.0
30/01:00pm 22.3 18.1 11.1 49 6.2 SSW 24 39 13 21 - - 0.0
30/12:30pm 21.0 16.1 8.3 44 6.6 SW 24 33 13 18 - - 0.0
30/12:00pm 20.6 16.0 8.3 45 6.4 SW 22 32 12 17 - - 0.0
30/11:30am 19.8 14.1 8.2 47 6.0 SW 28 37 15 20 - - 0.0
30/11:00am 21.0 15.5 9.3 47 6.2 SSW 28 43 15 23 - - 0.0
30/10:30am 20.9 14.8 9.8 49 6.0 SSW 32 43 17 23 - - 0.0
30/10:07am 20.6 14.8 9.5 49 5.9 SW 30 48 16 26 - - 0.0
30/10:00am 20.2 13.7 8.2 46 6.2 SSW 32 43 17 23 - - 0.0
30/09:43am 19.9 14.0 8.9 49 5.8 SSW 30 48 16 26 - - 0.0
30/09:30am 19.7 13.4 7.4 45 6.3 SW 30 43 16 23 - - 0.0
30/09:00am 19.3 13.4 7.4 46 6.1 SW 28 43 15 23 - - 0.0
30/08:30am 18.7 13.6 7.5 48 5.7 SW 24 35 13 19 - - 0.0
30/08:00am 17.9 13.3 6.7 48 5.6 SW 20 32 11 17 - - 0.0
30/07:30am 17.3 12.9 7.6 53 4.9 SW 20 30 11 16 - - 0.0
30/07:00am 16.2 12.6 6.9 54 4.6 SW 15 20 8 11 - - 0.0
30/06:30am 15.7 12.1 6.7 55 4.4 WSW 15 19 8 10 - - 0.0
30/06:00am 15.7 12.2 7.2 57 4.2 SW 15 20 8 11 - - 0.0
30/05:30am 15.7 11.7 6.7 55 4.4 WSW 17 20 9 11 - - 0.0
30/05:00am 15.6 12.0 6.6 55 4.4 WSW 15 20 8 11 - - 0.0
30/04:30am 16.0 11.7 7.2 56 4.4 SW 19 24 10 13 - - 0.0
30/04:00am 16.0 12.4 6.7 54 4.6 SW 15 22 8 12 - - 0.0
30/03:30am 16.3 12.2 6.4 52 4.8 SW 17 22 9 12 - - 0.0
30/03:00am 16.3 12.6 6.4 52 4.8 SW 15 20 8 11 - - 0.0
30/02:30am 16.5 12.6 7.2 54 4.6 SW 17 28 9 15 - - 0.0
30/02:00am 16.2 13.0 6.9 54 4.6 WSW 13 20 7 11 - - 0.0
30/01:30am 16.5 12.6 7.2 54 4.6 SW 17 24 9 13 - - 0.0
30/01:00am 16.4 12.2 7.6 56 4.4 SW 19 26 10 14 - - 0.0
30/12:30am 16.8 11.8 8.0 56 4.5 SW 24 39 13 21 - - 0.0
30/12:00am 16.7 13.1 8.4 58 4.2 SW 17 24 9 13 - - 0.0
 
Date/Time
EDT
Tmp

°C
App
Tmp
°C
Dew
Point
°C
Rel
Hum
%
Delta-T

°C
Wind Press
QNH
hPa
Press
MSL
hPa
Rain
since
9 am
mm
Dir
 
Spd
km/h
Gust
km/h
Spd
kts
Gust
kts
29/11:30pm 16.7 13.1 8.4 58 4.2 SW 17 20 9 11 - - 0.0
29/11:00pm 17.4 12.1 9.8 61 4.0 SW 28 39 15 21 - - 0.0
29/10:30pm 17.4 12.8 9.8 61 4.0 SW 24 39 13 21 - - 0.0
29/10:00pm 17.5 13.3 9.9 61 4.0 SW 22 32 12 17 - - 0.0
29/09:30pm 17.9 13.5 10.5 62 4.0 SW 24 37 13 20 - - 0.0
29/09:00pm 18.2 13.2 11.0 63 3.9 SW 28 39 15 21 - - 0.0
29/08:30pm 18.9 12.8 11.9 64 3.9 SSW 35 46 19 25 - - 0.0
29/08:00pm 18.9 12.3 11.5 62 4.1 SSW 37 48 20 26 - - 0.0
29/07:30pm 19.2 12.0 12.0 63 4.0 SSW 41 52 22 28 - - 0.0
29/07:00pm 19.5 12.3 13.0 66 3.7 SSW 43 54 23 29 - - 0.0
29/06:30pm 20.0 11.9 12.0 60 4.5 S 46 56 25 30 - - 0.0
29/06:00pm 19.9 11.3 11.7 59 4.5 S 48 56 26 30 - - 0.0
29/05:30pm 20.2 12.6 11.9 59 4.6 S 43 50 23 27 - - 0.0
29/05:00pm 20.2 12.9 11.7 58 4.7 S 41 48 22 26 - - 0.0
29/04:30pm 20.5 12.5 12.5 60 4.5 S 46 56 25 30 - - 0.0
29/04:00pm 20.7 14.2 12.9 61 4.4 S 39 50 21 27 - - 0.0
29/03:49pm 20.5 14.4 13.0 62 4.3 S 37 48 20 26 - - 0.0
29/03:30pm 21.9 16.1 10.7 49 6.2 SSW 32 44 17 24 - - 0.0
29/03:00pm 21.2 15.4 12.6 58 4.9 SSW 35 46 19 25 - - 0.0
29/02:30pm 21.2 14.9 11.0 52 5.6 SSW 35 46 19 25 - - 0.0
29/02:00pm 21.7 15.2 10.5 49 6.1 SSW 35 54 19 29 - - 0.0
29/01:50pm 21.3 14.6 11.1 52 5.6 SSW 37 56 20 30 - - 0.0
29/01:30pm 20.6 12.9 12.1 58 4.8 S 44 59 24 32 - - 0.0
29/01:21pm 20.4 12.6 9.6 50 5.8 SSW 41 59 22 32 - - 0.0
29/01:00pm 20.7 13.2 10.8 53 5.4 S 41 48 22 26 - - 0.0
29/12:30pm 20.8 13.3 9.4 48 6.1 SSW 39 50 21 27 - - 0.0
29/12:16pm 21.1 15.0 10.6 51 5.7 SSW 33 52 18 28 - - 0.0
29/12:00pm 20.3 13.6 9.5 50 5.8 SSW 35 50 19 27 - - 0.0
29/11:30am 20.3 14.5 11.5 57 4.9 SW 33 48 18 26 - - 0.0
29/11:00am 19.5 11.6 10.8 57 4.7 SSW 43 48 23 26 - - 0.0
29/10:30am 19.5 11.5 10.5 56 4.9 SSW 43 54 23 29 - - 0.0
29/10:00am 18.9 11.7 10.5 58 4.5 SSW 39 50 21 27 - - 0.0
29/09:30am 18.7 12.8 11.0 61 4.2 SSW 33 46 18 25 - - 0.0
29/09:00am 18.1 11.9 10.0 59 4.3 SSW 33 46 18 25 - - 0.4
29/08:38am 17.5 11.4 9.7 60 4.1 SW 32 50 17 27 - - 0.4
29/08:30am 17.5 11.4 9.7 60 4.1 SW 32 43 17 23 - - 0.4
29/08:00am 16.8 10.9 9.2 61 3.9 SW 30 43 16 23 - - 0.4
29/07:30am 16.2 10.3 9.2 63 3.6 SW 30 43 16 23 - - 0.4
29/07:00am 15.3 10.9 9.0 66 3.2 SW 22 35 12 19 - - 0.4
29/06:30am 15.1 10.4 9.2 68 3.0 SW 24 33 13 18 - - 0.4
29/06:00am 15.6 10.5 10.6 72 2.6 SW 28 41 15 22 - - 0.4
29/05:30am 15.6 10.1 10.6 72 2.6 SW 30 41 16 22 - - 0.4
29/05:00am 15.4 9.9 10.6 73 2.5 SW 30 39 16 21 - - 0.4
29/04:30am 15.6 10.9 10.8 73 2.5 SW 26 35 14 19 - - 0.4
29/04:00am 15.6 11.8 11.0 74 2.5 SW 22 32 12 17 - - 0.4
29/03:30am 16.0 11.6 11.6 75 2.4 SW 26 35 14 19 - - 0.4
29/03:00am 16.1 11.8 12.1 77 2.2 SW 26 37 14 20 - - 0.4
29/02:30am 16.4 11.5 12.6 78 2.1 SW 30 39 16 21 - - 0.4
29/02:00am 16.0 12.6 12.4 79 2.0 SW 22 32 12 17 - - 0.4
29/01:30am 16.0 11.4 12.4 79 2.0 SW 28 39 15 21 - - 0.4
29/01:12am 16.6 10.1 12.9 79 2.1 SW 39 57 21 31 - - 0.4
29/01:00am 17.0 10.2 13.1 78 2.2 SSW 41 54 22 29 - - 0.4
29/12:30am 16.3 12.5 12.3 77 2.2 SW 24 33 13 18 - - 0.4
29/12:00am 16.6 13.6 12.4 76 2.3 SW 20 28 11 15 - - 0.4
 
Date/Time
EDT
Tmp

°C
App
Tmp
°C
Dew
Point
°C
Rel
Hum
%
Delta-T

°C
Wind Press
QNH
hPa
Press
MSL
hPa
Rain
since
9 am
mm
Dir
 
Spd
km/h
Gust
km/h
Spd
kts
Gust
kts
28/11:30pm 16.9 13.6 12.8 77 2.3 SW 22 33 12 18 - - 0.4
28/11:00pm 17.0 13.7 12.7 76 2.4 SW 22 37 12 20 - - 0.4
28/10:30pm 17.3 14.0 12.8 75 2.5 SW 22 33 12 18 - - 0.4
28/10:00pm 17.2 14.2 12.7 75 2.5 SW 20 30 11 16 - - 0.4
28/09:30pm 17.1 14.1 12.6 75 2.5 SW 20 26 11 14 - - 0.4
28/09:00pm 17.2 13.5 12.7 75 2.5 SW 24 32 13 17 - - 0.4
28/08:30pm 17.2 13.4 12.3 73 2.7 SW 24 33 13 18 - - 0.4
28/08:00pm 17.4 13.6 12.3 72 2.8 SW 24 30 13 16 - - 0.4
28/07:37pm 17.8 12.6 12.9 73 2.7 SW 32 50 17 27 - - 0.4
28/07:30pm 18.6 13.2 13.9 74 2.7 SW 35 50 19 27 - - 0.4
28/07:00pm 18.6 14.8 13.5 72 2.9 SW 26 35 14 19 - - 0.4
28/06:30pm 18.7 15.1 13.1 70 3.2 SW 24 32 13 17 - - 0.2
28/06:00pm 18.4 14.9 13.5 73 2.8 SW 24 30 13 16 - - 0.2
28/05:30pm 18.9 13.7 14.6 76 2.5 S 35 43 19 23 - - 0.2
28/05:00pm 19.4 14.0 13.8 70 3.2 S 35 41 19 22 - - 0.2
28/04:30pm 20.3 14.6 15.1 72 3.1 S 39 46 21 25 - - 0.2
28/04:00pm 20.3 13.8 15.1 72 3.1 SSW 43 54 23 29 - - 0.2
28/03:41pm 20.8 15.6 15.6 72 3.1 SSW 37 56 20 30 - - 0.2
28/03:30pm 20.7 17.1 16.3 76 2.6 SSW 30 41 16 22 - - 0.2
28/03:00pm 20.2 18.0 16.0 77 2.5 SSW 22 28 12 15 - - 0.2

Latest Capital City Observations: Canberra | Sydney | Melbourne | Brisbane | Adelaide | Perth | Hobart | Darwin

Other Formats:

Comma delimited format used in spreadsheet applications
http://www.bom.gov.au/fwo/IDN60901/IDN60901.94749.axf

JavaScript Object Notation format (JSON) in row-major order
http://www.bom.gov.au/fwo/IDN60901/IDN60901.94749.json